Location: Bemmer
(51.5498°N, 5.6249°E)
Time: 02:22:40
(UTC+00:00)

Okean 3 - Pass Details

Date: 03 March 2021
Orbit: 577 x 600 km, 82.5° (Epoch: 13 April)

Event Time Altitude Azimuth Distance (km) Brightness Sun altitude
Rises 18:34:48 0° 356° (N) 2,832 7.1 -12.2°
Reaches altitude 10° 18:37:14 10° 8° (N) 1,930 6.1 -12.5°
Maximum altitude 18:41:00 30° 70° (ENE) 1,085 4.3 -13.1°
Enters shadow 18:43:03 20° 115° (ESE) 1,395 4.8 -13.4°
